DLH430 EDDF-KORD

Flight info

Callsign DLH430
Flight time N/A
Altitude 34000
Route OBOKA3M/25C OBOKA Z28 DIBIR DCT BUDIP DCT GISEB DCT RAVLO Y70 OTBED DCT ABLUC DCT OZRAT DCT WETFI DCT ASKUP DCT SUROX DCT REVNU DCT ETARI DCT 56N020W DCT 5630N03000W DCT 5730N04000W DCT 5830N05000W DCT AVUTI N852B ALSOP DCT TEALS DCT VANSI DCT STAFE N890B SSM WYNDE3
Aircraft A346/H-VGDW/C

Departure

Time 2026-05-06 19:13
Airport Frankfurt Main Airport (EDDF)

Arrival

Time N/A
Airport Chicago O'Hare International Airport (KORD)
Time Latitude Longitude Altitude Speed Heading
2026-05-06 18:27 50.04666 8.56049 364 ft 0 kts 340°
2026-05-06 18:59 50.04664 8.56051 364 ft 2 kts 340°
2026-05-06 18:59 50.04639 8.56065 364 ft 4 kts 340°
2026-05-06 18:59 50.04619 8.56076 364 ft 4 kts 333°
2026-05-06 18:59 50.04602 8.56097 365 ft 4 kts 303°
2026-05-06 19:00 50.04596 8.56125 369 ft 4 kts 268°
2026-05-06 19:00 50.04599 8.56151 367 ft 0 kts 251°
2026-05-06 19:00 50.04590 8.56113 364 ft 4 kts 249°
2026-05-06 19:00 50.04580 8.56075 369 ft 3 kts 249°
2026-05-06 19:01 50.04579 8.56070 368 ft 0 kts 250°
2026-05-06 19:04 50.04579 8.56066 364 ft 1 kts 250°
2026-05-06 19:04 50.04572 8.56039 371 ft 4 kts 250°
2026-05-06 19:05 50.04550 8.55986 370 ft 7 kts 219°
2026-05-06 19:05 50.04493 8.55943 370 ft 10 kts 201°
2026-05-06 19:05 50.04416 8.55912 370 ft 12 kts 185°
2026-05-06 19:05 50.04326 8.55939 367 ft 14 kts 160°
2026-05-06 19:06 50.04255 8.55947 367 ft 11 kts 201°
2026-05-06 19:06 50.04184 8.55920 366 ft 11 kts 167°
2026-05-06 19:06 50.04105 8.55965 365 ft 10 kts 159°
2026-05-06 19:06 50.04073 8.56026 364 ft 8 kts 92°
2026-05-06 19:07 50.04089 8.56117 364 ft 9 kts 70°
2026-05-06 19:07 50.04112 8.56219 367 ft 11 kts 70°
2026-05-06 19:07 50.04140 8.56339 367 ft 12 kts 69°
2026-05-06 19:07 50.04171 8.56469 367 ft 13 kts 69°
2026-05-06 19:08 50.04205 8.56609 365 ft 14 kts 69°
2026-05-06 19:08 50.04240 8.56753 368 ft 14 kts 69°
2026-05-06 19:08 50.04275 8.56899 370 ft 15 kts 69°
2026-05-06 19:08 50.04316 8.57072 372 ft 19 kts 69°
2026-05-06 19:09 50.04370 8.57297 375 ft 24 kts 69°
2026-05-06 19:09 50.04431 8.57550 373 ft 25 kts 69°
2026-05-06 19:09 50.04490 8.57797 373 ft 25 kts 70°
2026-05-06 19:09 50.04552 8.58058 375 ft 26 kts 70°
2026-05-06 19:10 50.04614 8.58317 381 ft 21 kts 70°
2026-05-06 19:10 50.04646 8.58451 381 ft 10 kts 69°
2026-05-06 19:10 50.04654 8.58526 378 ft 7 kts 108°
2026-05-06 19:10 50.04618 8.58573 377 ft 4 kts 158°
2026-05-06 19:11 50.04615 8.58574 377 ft 0 kts 158°
2026-05-06 19:11 50.04613 8.58575 377 ft 1 kts 158°
2026-05-06 19:11 50.04589 8.58591 378 ft 7 kts 158°
2026-05-06 19:11 50.04531 8.58626 382 ft 8 kts 165°
2026-05-06 19:12 50.04492 8.58597 382 ft 7 kts 237°
2026-05-06 19:12 50.04484 8.58567 378 ft 0 kts 250°
2026-05-06 19:12 50.04475 8.58529 380 ft 20 kts 250°
2026-05-06 19:12 50.04354 8.58028 376 ft 77 kts 249°
2026-05-06 19:13 50.04103 8.56985 374 ft 127 kts 250°
2026-05-06 19:13 50.03743 8.55477 361 ft 169 kts 249°
2026-05-06 19:13 50.03313 8.53661 640 ft 179 kts 251°
2026-05-06 19:13 50.02886 8.51870 1233 ft 176 kts 251°
2026-05-06 19:14 50.02327 8.50138 1679 ft 185 kts 232°
2026-05-06 19:14 50.01214 8.49106 2098 ft 194 kts 199°
2026-05-06 19:14 49.99870 8.48572 2434 ft 205 kts 197°
2026-05-06 19:14 49.98451 8.48028 2805 ft 211 kts 197°
2026-05-06 19:15 49.97034 8.47444 3337 ft 209 kts 198°
2026-05-06 19:15 49.95636 8.46839 3881 ft 209 kts 199°
2026-05-06 19:15 49.94208 8.46194 4176 ft 220 kts 199°
2026-05-06 19:15 49.92729 8.45512 4581 ft 226 kts 201°
2026-05-06 19:16 49.91332 8.44284 4851 ft 235 kts 227°
2026-05-06 19:16 49.90358 8.42216 5402 ft 236 kts 239°
2026-05-06 19:16 49.89537 8.40059 6040 ft 236 kts 239°
2026-05-06 19:16 49.88794 8.37747 6608 ft 238 kts 253°
2026-05-06 19:17 49.88567 8.35211 7104 ft 246 kts 271°
2026-05-06 19:17 49.88687 8.32483 7411 ft 261 kts 273°
2026-05-06 19:17 49.88859 8.29582 7896 ft 268 kts 274°
2026-05-06 19:17 49.89240 8.26778 8508 ft 272 kts 289°
2026-05-06 19:18 49.90148 8.24141 9157 ft 276 kts 303°
2026-05-06 19:18 49.91279 8.21753 9757 ft 280 kts 304°
2026-05-06 19:18 49.92466 8.19322 10222 ft 286 kts 305°
2026-05-06 19:18 49.93748 8.16848 10464 ft 302 kts 309°
2026-05-06 19:19 49.95248 8.14445 10729 ft 317 kts 315°
2026-05-06 19:19 49.96941 8.12125 10996 ft 332 kts 317°
2026-05-06 19:19 49.98734 8.09743 11263 ft 346 kts 317°
2026-05-06 19:19 50.00605 8.07261 11513 ft 361 kts 317°
2026-05-06 19:20 50.02552 8.04670 11790 ft 374 kts 317°
2026-05-06 19:20 50.04547 8.02009 12293 ft 380 kts 317°
2026-05-06 19:20 50.06555 7.99325 12938 ft 383 kts 317°
2026-05-06 19:20 50.08580 7.96609 13573 ft 386 kts 317°
2026-05-06 19:21 50.10631 7.93855 14093 ft 390 kts 317°
2026-05-06 19:21 50.12695 7.91082 14641 ft 393 kts 317°
2026-05-06 19:21 50.14768 7.88288 15216 ft 395 kts 317°
2026-05-06 19:21 50.16857 7.85469 15756 ft 398 kts 317°
2026-05-06 19:22 50.18958 7.82626 16306 ft 401 kts 317°
2026-05-06 19:22 50.21071 7.79766 16878 ft 403 kts 317°
2026-05-06 19:22 50.23206 7.76912 17488 ft 404 kts 319°
2026-05-06 19:22 50.25497 7.74319 18046 ft 409 kts 325°
2026-05-06 19:23 50.27974 7.72097 18510 ft 414 kts 331°
2026-05-06 19:23 50.30598 7.70201 18954 ft 417 kts 334°
2026-05-06 19:23 50.33275 7.68391 19407 ft 420 kts 334°
2026-05-06 19:23 50.35971 7.66580 19857 ft 423 kts 334°
2026-05-06 19:24 50.38681 7.64739 20292 ft 426 kts 334°
2026-05-06 19:24 50.41403 7.62876 20728 ft 429 kts 334°
2026-05-06 19:24 50.44151 7.60988 21156 ft 432 kts 334°
2026-05-06 19:24 50.46913 7.59085 21591 ft 435 kts 334°
2026-05-06 19:25 50.49684 7.57173 22023 ft 438 kts 334°
2026-05-06 19:25 50.52518 7.55205 22451 ft 441 kts 333°
2026-05-06 19:25 50.55277 7.53076 22873 ft 443 kts 330°
2026-05-06 19:25 50.57832 7.50819 23268 ft 444 kts 327°
2026-05-06 19:26 50.60494 7.48190 23641 ft 447 kts 325°
2026-05-06 19:26 50.63108 7.45511 23984 ft 449 kts 325°
2026-05-06 19:26 50.65729 7.42799 24331 ft 452 kts 326°
2026-05-06 19:26 50.68367 7.40078 24687 ft 454 kts 326°
2026-05-06 19:27 50.71019 7.37332 25012 ft 457 kts 324°
2026-05-06 19:27 50.73519 7.34223 25342 ft 458 kts 317°
2026-05-06 19:27 50.75763 7.30640 25679 ft 459 kts 310°
2026-05-06 19:27 50.77743 7.26641 26015 ft 460 kts 304°
2026-05-06 19:28 50.79603 7.22493 26336 ft 463 kts 303°
2026-05-06 19:28 50.81445 7.18303 26659 ft 465 kts 303°
2026-05-06 19:28 50.83301 7.14082 26958 ft 468 kts 303°
2026-05-06 19:28 50.85206 7.09768 27274 ft 470 kts 304°
2026-05-06 19:29 50.87091 7.05512 27599 ft 472 kts 304°
2026-05-06 19:29 50.88960 7.01287 27894 ft 475 kts 304°
2026-05-06 19:29 50.90888 6.96935 28232 ft 476 kts 304°
2026-05-06 19:29 50.92774 6.92679 28664 ft 475 kts 304°
2026-05-06 19:30 50.94668 6.88394 29132 ft 474 kts 304°
2026-05-06 19:30 50.96554 6.84111 29597 ft 473 kts 304°
2026-05-06 19:30 50.98441 6.79831 30027 ft 472 kts 303°
2026-05-06 19:30 51.00319 6.75561 30368 ft 472 kts 303°
2026-05-06 19:31 51.02197 6.71278 30741 ft 471 kts 303°
2026-05-06 19:31 51.04086 6.66961 31113 ft 470 kts 303°
2026-05-06 19:31 51.07841 6.58364 31859 ft 467 kts 303°
2026-05-06 19:32 51.09692 6.54117 32218 ft 466 kts 303°
2026-05-06 19:32 51.11543 6.49859 32512 ft 467 kts 303°
2026-05-06 19:32 51.13390 6.45603 32766 ft 468 kts 303°
2026-05-06 19:32 51.15256 6.41297 33002 ft 469 kts 303°
2026-05-06 19:33 51.17087 6.37069 33260 ft 470 kts 303°
2026-05-06 19:33 51.18940 6.32782 33576 ft 469 kts 303°
2026-05-06 19:33 51.20791 6.28490 33856 ft 469 kts 303°
2026-05-06 19:33 51.22648 6.24177 33894 ft 474 kts 303°
2026-05-06 19:34 51.26414 6.15399 33901 ft 482 kts 303°
2026-05-06 19:34 51.30161 6.06483 33905 ft 482 kts 301°
2026-05-06 19:35 51.33821 5.97485 33914 ft 482 kts 301°
2026-05-06 19:35 51.37661 5.88666 33918 ft 483 kts 306°
2026-05-06 19:36 51.42060 5.80451 33922 ft 485 kts 311°
2026-05-06 19:36 51.46725 5.72643 33933 ft 483 kts 312°
2026-05-06 19:37 51.50610 5.66173 33935 ft 482 kts 312°
2026-05-06 19:37 51.55278 5.58360 33935 ft 482 kts 312°
2026-05-06 19:38 51.59941 5.50513 33936 ft 482 kts 312°
2026-05-06 19:38 51.64568 5.42701 33935 ft 482 kts 312°
2026-05-06 19:39 51.69206 5.34844 33943 ft 482 kts 312°
2026-05-06 19:39 51.73776 5.27072 33937 ft 479 kts 312°
2026-05-06 19:40 51.78395 5.19200 33938 ft 479 kts 312°
2026-05-06 19:40 51.82978 5.11364 33936 ft 479 kts 312°
2026-05-06 19:41 51.87522 5.03566 33941 ft 479 kts 312°
2026-05-06 19:41 51.92076 4.95697 33941 ft 479 kts 311°
2026-05-06 19:42 51.96627 4.87707 33955 ft 478 kts 311°
2026-05-06 19:42 52.01118 4.79790 33948 ft 476 kts 311°
2026-05-06 19:43 52.05611 4.71853 33953 ft 477 kts 311°
2026-05-06 19:43 52.10099 4.63909 33944 ft 476 kts 311°
2026-05-06 19:44 52.14575 4.55957 33943 ft 476 kts 311°
2026-05-06 19:44 52.19045 4.47991 33949 ft 475 kts 311°
2026-05-06 19:45 52.23507 4.40014 33950 ft 475 kts 311°
2026-05-06 19:45 52.27956 4.32041 33960 ft 474 kts 310°
2026-05-06 19:46 52.32389 4.24059 33966 ft 474 kts 311°
2026-05-06 19:46 52.36808 4.16075 33971 ft 476 kts 311°
2026-05-06 19:47 52.41253 4.08029 33973 ft 476 kts 311°
2026-05-06 19:47 52.45708 3.99943 33979 ft 475 kts 310°
2026-05-06 19:48 52.50134 3.91890 33982 ft 473 kts 310°
2026-05-06 19:48 52.54545 3.83810 33985 ft 474 kts 310°
2026-05-06 19:49 52.58944 3.75747 33987 ft 472 kts 309°
2026-05-06 19:49 52.63322 3.67685 33988 ft 472 kts 309°
2026-05-06 19:50 52.67706 3.59584 33985 ft 473 kts 309°
2026-05-06 19:50 52.72085 3.51467 34005 ft 475 kts 309°
2026-05-06 19:51 52.76469 3.43333 33990 ft 474 kts 309°
2026-05-06 19:51 52.80814 3.35228 33990 ft 474 kts 309°
2026-05-06 19:52 52.85150 3.27021 33994 ft 473 kts 307°
2026-05-06 19:52 52.88898 3.18125 34001 ft 470 kts 298°
2026-05-06 19:53 52.91811 3.08440 33997 ft 468 kts 290°
2026-05-06 19:53 52.93835 2.98201 34020 ft 465 kts 282°
2026-05-06 19:54 52.95248 2.87724 34018 ft 464 kts 281°
2026-05-06 19:54 52.96607 2.77235 34018 ft 464 kts 281°
2026-05-06 19:55 52.97961 2.66754 34034 ft 464 kts 280°
2026-05-06 19:55 52.99313 2.56270 34020 ft 463 kts 280°
2026-05-06 19:56 53.00649 2.45808 34020 ft 463 kts 280°
2026-05-06 19:56 53.01980 2.35328 34024 ft 463 kts 280°
2026-05-06 19:57 53.03301 2.24850 34023 ft 463 kts 280°
2026-05-06 19:57 53.04611 2.14368 34026 ft 463 kts 280°
2026-05-06 19:58 53.05911 2.03873 34026 ft 463 kts 280°
2026-05-06 19:58 53.07193 1.93372 34029 ft 463 kts 280°
2026-05-06 19:59 53.08472 1.82859 34029 ft 463 kts 280°